Regional Weather Roundup
Issued by NWS

Home | Current Version | Previous Version | Text Only | Print | Product List | Glossary Off
Versions: 1 2 3 4 5 6 7 8 9 10 11 12 13 14 15 16 17 18 19 20 21 22 23 24 25 26 27 28 29 30 31 32 33 34 35 36 37 38 39 40 41 42 43 44 45 46 47 48 49 50

000
ASUS44 KMEG 211910
RWRTN
TENNESSEE HOURLY STATE WEATHER ROUNDUP
NATIONAL WEATHER SERVICE MEMPHIS TN
200 PM CDT TUE OCT 21 2014

TNZ002-004-019-021-049-052-054-088>092-212000-
WEST TENNESSEE

CITY           SKY/WX    TMP DP  RH WIND       PRES   REMARKS
MEMPHIS INTL   SUNNY     76  47  35 NE7       30.06F
NWS MEMPHIS      N/A     74 N/A N/A MISG        N/A
JACKSON        SUNNY     74  45  35 N7        30.06F
DYERSBURG      SUNNY     72  43  35 N3        30.08F
UNION CITY     SUNNY     72  45  37 NW7       30.05F
PARIS          SUNNY     70  45  40 NW8       30.06F
HUNTINGDON     SUNNY     70  42  36 VRB7      30.05F
LEXINGTON      SUNNY     72  45  37 NW9       30.04F
SAVANNAH       SUNNY     73  48  40 VRB7      30.06F
$$

TNZ008-025-027-028-033-062-065-066-212000-
NORTH MIDDLE TENNESSEE

CITY           SKY/WX    TMP DP  RH WIND       PRES   REMARKS
NASHVILLE      MOSUNNY   72  46  39 NW8       30.03F
CLARKSVILLE    SUNNY     71  46  40 NW12G21   30.04F
SMYRNA         MOSUNNY   72  47  40 N13       30.04F
COOKEVILLE     MOSUNNY   66  48  52 N7        30.02F
CROSSVILLE     MOSUNNY   65  42  43 NW12      30.03F
$$

TNZ061-075-076-078-094-096-097-212000-
SOUTH MIDDLE TENNESSEE

CITY           SKY/WX    TMP DP  RH WIND       PRES   REMARKS
FAYETTEVILLE   SUNNY     68  45  42 NW9       30.03F
TULLAHOMA      SUNNY     68  43  40 VRB6      30.04F
WINCHESTER     SUNNY     68  45  42 N9        30.03F
MCMINNVILLE    SUNNY     68  48  49 NW8       30.03F
COLUMBIA       SUNNY     72  48  43 VRB7      30.02F
SHELBYVILLE    SUNNY     72  48  43 W13       30.03F
$$

TNZ017-018-042-046-047-212000-
NORTHEAST TENNESSEE

CITY           SKY/WX    TMP DP  RH WIND       PRES   REMARKS
TRI CITIES     PTSUNNY   62  42  47 W14G22    29.96F
ELIZABETHTON   MOCLDY    57  43  58 NW12      29.95F
$$

TNZ012-013-036-069-073-074-212000-
CENTRAL EAST TENNESSEE

CITY           SKY/WX    TMP DP  RH WIND       PRES   REMARKS
KNOXVILLE      MOSUNNY   66  44  45 W10       29.98F
OAK RIDGE      PTSUNNY   69  43  38 VRB6      30.00F
GATLINBURG     PTCLDY    66  43  42 NW9       29.98F
MORRISTOWN     PTCLDY    64  45  48 W12       29.99F
$$

TNZ083-085-099-212000-
SOUTHEAST TENNESSEE

CITY           SKY/WX    TMP DP  RH WIND       PRES   REMARKS
CHATTANOOGA    MOSUNNY   72  44  36 NW14      30.00F
$$

SKY/WX REPORTED AS FAIR MEANS FEW OR NO CLOUDS BELOW
12 THOUSAND FEET.




USA.gov is the U.S. government's official web portal to all federal, state and local government web resources and services.